Oceana Nas, Apollo Soucek Field, Station Virginia Beach US
ICAO: KNTU
IATA: NTU
Category: Medium
Scheduled Services: No

Elevation: 23 ft
TransAlt. 18000 ft.

Airport Communications:
Oceana Approach Control:123.9
ATIS:31.76
CLNC DEL:25.44
Oceana Departure Control:119.6
GND:33.64
ATCOM:672.3
BASE OPS:28.49
PMSV METRO:38.74
TWR:127.075

KNTU Zoom In..

Runways:

(A) RW 05L length 8001 ft width 150 ft
---- / hdg 52

(B) RW 05R length 12000 ft width 200 ft
---- / hdg 52

(C) RW 14L length 8001 ft width 150 ft
---- / hdg 144

(D) RW 14R length 8000 ft width 200 ft
---- / hdg 144

(E) RW 23L length 12000 ft width 200 ft
---- / hdg 232

(F) RW 23R length 8001 ft width 150 ft
---- / hdg 232

(G) RW 32L length 8000 ft width 200 ft
---- / hdg 324

(H) RW 32R length 8001 ft width 150 ft
---- / hdg 324

Location; KNTU
Day. 10 / Time. 10.56 Zulu
* Altimeter: 29.65
* Temperature: 09° c. 48.2°f.
* Wind from: 300° Speed 10 kn.
Dewpoint: -04° c.
Visibility: 10 Statute Miles.
Clouds: Broken 11000 ft.

KNTU 101056Z 30010KT 10SM BKN110 09/M04 A2965 RMK AO2 SLP043 T00891044


Wind From 300°
Speed 10 kn.

 
 
jpsmedia worldairports.se 2020   terms of use